Voltar ao catálogo

DELTA 1 DEB

AtivoSSO
NORAD 18475·DEBRIS·🇺🇸 United States

Lançado Jan 22, 1975 de Vandenberg Space Force Base

Loading…

Próximas Passagens (próximas 24 horas)

TLE

AtualizadoSource: Space-Track

Época: Sep 14, 2026, 03:57 UTC

1 18475U 75004HK  26257.16474399  .00000277  00000-0  68673-4 0  9996
2 18475  97.8952 224.9387 0045505 287.1112  72.5107 14.58306715160866

Acompanhe DELTA 1 DEB em tempo real com AllMySat

Download on the App Store